Hourly Data Report for September 02, 2017

All times are specified in Local Standard Time (LST). Add 1 hour to adjust for Daylight Saving Time where and when it is observed.

PORT ALBERNI (AUT)
BRITISH COLUMBIA

49°18'59.700" N
124°55'36.600" W
76.20 m
1036B06
71475
WQC

Download Data

Hourly Data (September 2017)
Hourly Data Report for September 2, 2017
Temp Definition
°C
Dew Point Temp Definition
°C
Rel Hum Definition
%
Wind Dir Definition
10's deg

Wind Spd Definition
km/h
Visibility Definition
km
Stn Press Definition
kPa
Hmdx Definition


Wind Chill Definition


Weather Definition


TIME
00:00 14.8 12.2 84 32 2   100.88     LegendNANA
01:00 13.9 11.9 88 31 3   100.88     LegendNANA
02:00 13.1 11.8 92 3 19   100.88     LegendNANA
03:00 12.4 11.2 93 32 2   100.86     LegendNANA
04:00 12.4 10.8 90 30 3   100.85     LegendNANA
05:00 11.7 10.7 94 1 11   100.83     LegendNANA
06:00 11.4 10.6 95 34 8   100.85     LegendNANA
07:00 14.8 12.2 85 1 15   100.86     LegendNANA
08:00 18.6 13.0 70 33 3   100.87     LegendNANA
09:00 21.6 12.7 57 8 2   100.81     LegendNANA
10:00 24.3 12.7 48 12 4   100.77 27   LegendNANA
11:00 27.0 13.9 44 12 6   100.73 30   LegendNANA
12:00 29.7 13.3 37 12 6   100.66 33   LegendNANA
13:00 32.1 12.8 31 15 8   100.61 35   LegendNANA
14:00 33.2 12.7 29 16 9   100.52 36   LegendNANA
15:00 33.3 12.7 29 18 9   100.50 36   LegendNANA
16:00 33.1 12.4 28 20 8   100.46 36   LegendNANA
17:00 32.5 11.7 28 21 7   100.45 35   LegendNANA
18:00 29.8 14.0 38 21 8   100.44 33   LegendNANA
19:00 26.5 15.5 51 3 12   100.50 31   LegendNANA
20:00 24.1 15.8 60 12 12   100.55 29   LegendNANA
21:00 22.3 15.9 67 15 7   100.60 27   LegendNANA
22:00 19.5 15.7 79 15 3   100.62     LegendNANA
23:00 17.6 15.6 88 32 2   100.65     LegendNANA

Notes on Data Quality.

Legend

  • E = Estimated
  • M = Missing
  • NA = Not Available
  • ‡ = Partner data that is not subject to review by the National Climate Archives
Date modified: